This demonstration page uses our WeatherBlox Daily Observations layout. Learn more.

39.29038, -76.61219

Hourly Observations for July 12, 2015

Temp ( °F °C ) Dew Point ( °F °C ) Humidity (%) Winds ( mph kmh ) Pressure ( in mb ) Visibility ( mi km ) Precip ( " mm )
12:54 am 00:54 Mostly Cloudy 76 24.4 58 14.4 54 54 undefined N/A 30.06 1018 N/A 0 0
1:54 am 01:54 Mostly Clear 75 23.9 59 15 58 58 undefined N/A 30.07 1018 N/A 0 0
2:54 am 02:54 Mostly Cloudy 73 22.8 61 16.1 66 66 undefined N/A 30.05 1018 N/A 0 0
3:54 am 03:54 Mostly Clear 73 22.8 60 15.6 64 64 undefined N/A 30.05 1018 N/A 0 0
4:54 am 04:54 Partly Cloudy 68 20 49 9.4 51 51 undefined N/A 30.19 1022 N/A 0 0
5:54 am 05:54 undefined 72 22.2 60 15.6 66 66 undefined N/A 30.07 1018 N/A 0 0
6:54 am 06:54 undefined 74 23.3 59 15 60 60 undefined N/A 30.07 1018 N/A 0 0
7:54 am 07:54 undefined 75 23.9 60 15.6 60 60 undefined N/A 30.07 1018 N/A 0 0
8:54 am 08:54 Cloudy 54 12.2 50 10 87 87 undefined N/A 30 1016 1.25 2.01168 0 0
9:54 am 09:54 Sunny 90 32.2 75 23.9 62 62 undefined N/A 30.08 1019 N/A 0 0
10:54 am 10:54 undefined 83 28.3 57 13.9 41 41 undefined N/A 30.05 1018 N/A 0 0
11:54 am 11:54 Partly Cloudy 84 28.9 57 13.9 40 40 undefined N/A 30.04 1017 N/A 0 0
12:54 pm 12:54 undefined 84 28.9 58 14.4 41 41 undefined N/A 30.04 1017 N/A 0 0
1:54 pm 13:54 undefined 84 28.9 59 15 43 43 undefined N/A 30.02 1017 N/A 0 0
2:54 pm 14:54 undefined 86 30 62 16.7 45 45 undefined N/A 30.01 1016 N/A 0 0
3:54 pm 15:54 undefined 85 29.4 59 15 42 42 undefined N/A 30 1016 N/A 0 0
4:54 pm 16:54 undefined 85 29.4 57 13.9 39 39 undefined N/A 29.98 1015 N/A 0 0
5:54 pm 17:54 undefined 85 29.4 54 12.2 35 35 undefined N/A 29.97 1015 N/A 0 0
6:54 pm 18:54 undefined 84 28.9 56 13.3 38 38 undefined N/A 29.97 1015 N/A 0 0
7:54 pm 19:54 undefined 83 28.3 55 12.8 38 38 undefined N/A 29.96 1015 N/A 0 0
8:54 pm 20:54 undefined 82 27.8 58 14.4 44 44 undefined N/A 29.96 1015 N/A 0 0
9:54 pm 21:54 Mostly Clear 82 27.8 60 15.6 47 47 undefined N/A 29.97 1015 N/A 0 0
10:54 pm 22:54 undefined 80 26.7 61 16.1 52 52 undefined N/A 29.97 1015 N/A 0 0
11:54 pm 23:54 Mostly Cloudy 79 26.1 61 16.1 54 54 undefined N/A 29.97 1015 N/A 0 0

Powered by AerisWeather